TimeEDT,TemperatureF,Dew PointF,Humidity,Sea Level PressureIn,VisibilityMPH,Wind Direction,Wind SpeedMPH,Gust SpeedMPH,PrecipitationIn,Events,Conditions,WindDirDegrees,DateUTC
12:45 AM,66.2,66.2,100,30.14,3.0,Calm,Calm,-,N/A,,Scattered Clouds,0,2013-06-23 04:45:00
12:54 AM,66.9,66.0,97,30.14,3.0,Calm,Calm,-,N/A,,Partly Cloudy,0,2013-06-23 04:54:00
1:06 AM,66.2,66.2,100,30.14,1.5,Calm,Calm,-,N/A,,Scattered Clouds,0,2013-06-23 05:06:00
1:20 AM,66.2,64.4,94,30.14,3.0,Calm,Calm,-,N/A,,Mostly Cloudy,0,2013-06-23 05:20:00
1:54 AM,66.0,64.9,96,30.13,3.0,Calm,Calm,-,N/A,,Mostly Cloudy,0,2013-06-23 05:54:00
2:01 AM,66.2,64.4,94,30.14,2.0,Calm,Calm,-,N/A,,Mostly Cloudy,0,2013-06-23 06:01:00
2:14 AM,64.4,64.4,100,30.13,2.5,Calm,Calm,-,N/A,,Mostly Cloudy,0,2013-06-23 06:14:00
2:25 AM,66.2,64.4,94,30.13,3.0,Calm,Calm,-,N/A,,Overcast,0,2013-06-23 06:25:00
2:48 AM,64.4,64.4,100,30.12,1.5,Calm,Calm,-,N/A,,Overcast,0,2013-06-23 06:48:00
2:54 AM,64.9,64.9,100,30.12,0.5,Calm,Calm,-,N/A,Fog,Fog,0,2013-06-23 06:54:00
3:05 AM,64.4,64.4,100,30.11,2.5,Calm,Calm,-,N/A,,Mostly Cloudy,0,2013-06-23 07:05:00
3:08 AM,64.4,64.4,100,30.11,3.0,Calm,Calm,-,N/A,,Mostly Cloudy,0,2013-06-23 07:08:00
3:16 AM,64.4,64.4,100,30.11,2.0,Calm,Calm,-,N/A,,Mostly Cloudy,0,2013-06-23 07:16:00
3:28 AM,64.4,64.4,100,30.11,4.0,Calm,Calm,-,N/A,,Mostly Cloudy,0,2013-06-23 07:28:00
3:54 AM,66.0,63.0,90,30.10,10.0,Calm,Calm,-,N/A,,Mostly Cloudy,0,2013-06-23 07:54:00
4:54 AM,64.0,63.0,96,30.10,7.0,Calm,Calm,-,N/A,,Partly Cloudy,0,2013-06-23 08:54:00
5:54 AM,63.0,62.1,97,30.12,6.0,Calm,Calm,-,N/A,,Clear,0,2013-06-23 09:54:00
6:54 AM,64.0,62.1,93,30.12,10.0,Calm,Calm,-,N/A,,Scattered Clouds,0,2013-06-23 10:54:00
7:54 AM,66.9,62.1,84,30.14,10.0,Calm,Calm,-,N/A,,Scattered Clouds,0,2013-06-23 11:54:00
8:54 AM,70.0,62.1,76,30.14,10.0,SSE,4.6,-,N/A,,Clear,160,2013-06-23 12:54:00
9:54 AM,72.0,63.0,73,30.12,10.0,Variable,3.5,-,0.00,,Mostly Cloudy,0,2013-06-23 13:54:00
10:54 AM,72.0,64.0,76,30.11,10.0,Calm,Calm,-,N/A,,Partly Cloudy,0,2013-06-23 14:54:00
11:54 AM,77.0,66.9,71,30.09,10.0,Calm,Calm,-,N/A,,Partly Cloudy,0,2013-06-23 15:54:00
12:54 PM,82.0,66.9,60,30.06,10.0,Calm,Calm,-,N/A,,Clear,0,2013-06-23 16:54:00
1:54 PM,87.1,70.0,57,30.03,10.0,Variable,3.5,-,N/A,,Scattered Clouds,0,2013-06-23 17:54:00
2:54 PM,89.1,66.9,48,30.01,10.0,SW,10.4,-,N/A,,Scattered Clouds,230,2013-06-23 18:54:00
3:54 PM,90.0,66.0,45,29.99,10.0,West,9.2,-,N/A,,Clear,260,2013-06-23 19:54:00
4:54 PM,90.0,64.9,43,29.97,10.0,WSW,8.1,-,N/A,,Clear,250,2013-06-23 20:54:00
5:54 PM,87.1,64.9,48,29.98,10.0,West,5.8,-,N/A,,Clear,260,2013-06-23 21:54:00
6:54 PM,81.0,63.0,54,30.00,10.0,NNW,8.1,17.3,N/A,,Mostly Cloudy,330,2013-06-23 22:54:00
7:02 PM,80.6,62.6,54,30.00,10.0,Variable,6.9,17.3,0.00,Rain-Thunderstorm,Light Rain,0,2013-06-23 23:02:00
7:23 PM,75.2,64.4,69,30.02,7.0,Variable,4.6,-,0.01,Rain,Rain,0,2013-06-23 23:23:00
7:39 PM,73.4,68.0,83,30.03,6.0,WNW,5.8,-,0.02,Rain-Thunderstorm,Light Thunderstorms and Rain,290,2013-06-23 23:39:00
7:49 PM,71.6,66.2,83,30.04,1.5,West,21.9,34.5,0.11,Rain-Thunderstorm,Heavy Thunderstorms and Rain,270,2013-06-23 23:49:00
7:54 PM,70.0,64.9,84,30.04,1.0,West,10.4,34.5,0.16,Rain-Thunderstorm,Heavy Thunderstorms and Rain,260,2013-06-23 23:54:00
8:01 PM,69.8,66.2,88,30.02,3.0,NNW,4.6,23.0,0.00,Rain-Thunderstorm,Light Thunderstorms and Rain,330,2013-06-24 00:01:00
8:27 PM,69.8,66.2,88,30.02,10.0,Calm,Calm,-,0.00,,Partly Cloudy,0,2013-06-24 00:27:00
8:54 PM,69.1,68.0,96,30.02,10.0,Calm,Calm,-,0.00,,Clear,0,2013-06-24 00:54:00
9:30 PM,69.8,68.0,94,30.04,9.0,Calm,Calm,-,N/A,,Scattered Clouds,0,2013-06-24 01:30:00
9:54 PM,68.0,66.9,96,30.04,8.0,Calm,Calm,-,N/A,,Scattered Clouds,0,2013-06-24 01:54:00
10:54 PM,68.0,66.9,96,30.03,7.0,ENE,4.6,-,N/A,,Scattered Clouds,60,2013-06-24 02:54:00
11:54 PM,66.9,66.9,100,30.03,3.0,Calm,Calm,-,N/A,,Partly Cloudy,0,2013-06-24 03:54:00